SILU-1 (SILKROAD 1) (42903 NORAD) Tracking and Keplerian Element Data

This shows tracking and keplerian element data for the satellite.

Feedback or suggestion? Click here.




ElementValue
Catalog42903
NameSILU-1 (SILKROAD 1)
Epoch Orbit5544
Epoch Day203.22179995
Epoch Year2018
RAAN115.7489
Inclination42.7777
Eccentricity0.0012687
Argument of Perigee196.208
Mean Anonmoly294.6568
Mean Motion15.73180035
Decay Rate0.00021492
L11 42903U 17021F 18203.22179995 .00021492 00000-0 15378-3 0 9992
L22 42903 42.7777 115.7489 0012687 196.2080 294.6568 15.73180035 55440

Live tracking and technical data element details for SILU-1 (SILKROAD 1) (NORAD 42903). SILU-1 (SILKROAD 1) can be tracked NOW for your location showing map with azimuth and elevation plus other details from your city location.

Track the satellite on the map from your city or location and see movement details for azimuth, elevation, latitude, longitude, range, height, and movement on the map or in text.







IsCatalogInMostPopularTable: catalog: 42903, numindb: 110
Update: records affected: 1



GetName: 42903 SILU-1 (SILKROAD 1)

Hit Count: updated at: Mon, 23 Jul 2018 07:42:25 GMT